Regional Weather Roundup
Issued by NWS

Home | Current Version | Previous Version | Text Only | Print | Product List | Glossary Off
Versions: 1 2 3 4 5 6 7 8 9 10 11 12 13 14 15 16 17 18 19 20 21 22 23 24 25 26 27 28 29 30 31 32 33 34 35 36 37 38 39 40 41 42 43 44 45 46 47 48 49 50

000
ASUS45 KBOU 312007
RWRCO

WEATHER ROUNDUP FOR COLORADO
NATIONAL WEATHER SERVICE DENVER/BOULDER CO
200 PM MDT SUN AUG 31 2014

NOTE: "FAIR" INDICATES FEW OR NO CLOUDS BELOW 12000 FEET WITH NO
SIGNIFICANT WEATHER AND/OR OBSTRUCTIONS TO VISIBILITY.

COZ001>005-013-030-031-312100-
...NORTHWEST COLORADO...

CITY           SKY/WX    TMP DP  RH WIND       PRES   REMARKS
CRAIG          MOSUNNY   65  46  50 CALM      30.05F
HAYDEN         PTSUNNY   61  43  51 NW5       30.07S
MEEKER         MOSUNNY   72  43  35 W10       30.03F
MOUNT WERNER   NOT AVBL
STEAMBOAT SPGS PTSUNNY   57  44  60 CALM      30.09S
WALDEN         PTSUNNY   52  41  66 CALM      30.13S
$$

COZ006>008-011-312100-
...WEST CENTRAL VALLEYS...

CITY           SKY/WX    TMP DP  RH WIND       PRES   REMARKS
GRAND JUNCTION MOSUNNY   87  30  13 W25G35    29.90S
MONTROSE       MOSUNNY   82  35  18 SW15G28   29.99F
EAGLE          PTSUNNY   77  37  24 W22G30    30.00F
RIFLE          MOSUNNY   83  32  16 W28G38    29.92F
DELTA          NOT AVBL
NUCLA          MOSUNNY   84  32  15 S21G31    30.02F
$$

COZ017>023-064>068-312100-
...SOUTHWEST COLORADO...

CITY           SKY/WX    TMP DP  RH WIND       PRES   REMARKS
DURANGO        MOSUNNY   81  33  17 W21G32    30.11F
CORTEZ         MOSUNNY   86  34  15 W9G22     30.05F
PAGOSA SPRINGS MOSUNNY   78  26  14 W21G30    30.18F
TELLURIDE      PTSUNNY   70  34  26 SW6G23    30.26R
WOLF CREEK PAS CLOUDY    48  32  53 SW28G47   30.44S
$$

COZ009-010-012-014-032>034-037-058>063-312100-
...CENTRAL COLORADO...

CITY           SKY/WX    TMP DP  RH WIND       PRES   REMARKS
ASPEN          LGT RAIN  61  43  51 W8G15     30.11R
BUENA VISTA    PTSUNNY   75  28  17 W22G33    30.11F
COPPER MTN     LGT RAIN  50  32  50 SW8G21    30.38R
BERTHOUD PASS  FAIR      41  41 100 MISG      30.38R
COTTONWOOD PAS PTSUNNY   64  28  25 N13G21    30.24F
GUNNISON       PTSUNNY   73  36  25 W14G26    30.12F
KREMMLING      LGT RAIN  68  41  37 NW6       30.06S
LEADVILLE      CLOUDY    54  34  46 VRB6G16   30.23F
MONARCH PASS   CLOUDY    50  30  46 W45G56    30.49R
SALIDA         PTSUNNY   79  29  16 W25       30.15S
SUNLIGHT       PTSUNNY   61  37  41 CALM      30.29S
WILKERSON PASS NOT AVBL
$$

COZ069>075-312100-
...SAN LUIS VALLEY/SANGRE DE CRISTO MOUNTAINS...

CITY           SKY/WX    TMP DP  RH WIND       PRES   REMARKS
ALAMOSA        SUNNY     80  30  16 SW23G29   30.11F
LA VETA PASS   NOT AVBL
SAGUACHE       NOT AVBL
$$

COZ035-036-038>040-312100-
...NORTHERN COLORADO FRONT RANGE...

CITY           SKY/WX    TMP DP  RH WIND       PRES   REMARKS
DENVER INTL AP PTSUNNY   75  47  36 CALM      29.93R
DMNS CITY PARK   N/A     77  46  33 S8        29.91F
AURORA         PTSUNNY   75  48  38 SE6       29.95F
FRONT RANGE AP MOSUNNY   77  46  33 SE5       29.95R
ERIE MUNI ARPT MOSUNNY   78  46  32 SE16      29.89F
BOULDER MUN AP MOSUNNY   81  41  24 CALM      29.89R
CENTENNIAL     MOSUNNY   73  45  36 SE10      29.95F
BROOMFIELD     NOT AVBL
FORT COLLINS   PTSUNNY   61  52  72 N14       29.93F
LONGMONT       PTSUNNY   82  48  30 E9        29.90S
$$

COZ041-046-047-076>085-087-088-312100-
...PIKES PEAK/PALMER DIVIDE AND SOUTHERN FOOTHILLS...

CITY           SKY/WX    TMP DP  RH WIND       PRES   REMARKS
COLO. SPRINGS  PTSUNNY   79  48  33 NE17      29.96S
A. F. ACADEMY  MOSUNNY   71  49  45 N13       30.00R
ELLICOTT       MOSUNNY   80  48  32 E13       29.94F
FALCON         MOSUNNY   74  49  41 N9        30.02F
FORT CARSON    PTSUNNY   82  48  30 NE12      29.92F
LIMON          SUNNY     76  47  35 NE13      29.93F
MONUMENT HILL  PTSUNNY   64  45  48 NE5       30.05R
TRINIDAD       SUNNY     92  32  12 SW16G31   29.92F
$$

COZ042>045-048>051-090-091-312100-
...NORTHEAST COLORADO...

CITY           SKY/WX    TMP DP  RH WIND       PRES   REMARKS
GREELEY ARPT   CLOUDY    63  48  59 N16G23    29.93S
AKRON          PTSUNNY   73  48  41 N8        29.91F
BURLINGTON     MOSUNNY   78  51  38 N16G25    29.88F
WRAY             N/A     81  50  34 N6        29.86F
STERLING       PTSUNNY   82  50  32 NW12G17   29.84S
HOLYOKE        PTSUNNY   73  59  60 NE5       29.84F
FORT MORGAN    PTSUNNY   74  49  41 NW13G21   29.93R
$$

COZ086-089-092>099-312100-
...SOUTHEAST COLORADO...

CITY           SKY/WX    TMP DP  RH WIND       PRES   REMARKS
PUEBLO         SUNNY     94  32  11 W9G21     29.81F
LA JUNTA       SUNNY     99  34  10 W18G29    29.79S
LAMAR          MOSUNNY   94  39  14 NW8       29.74F
SPRINGFIELD      N/A     95  40  14 SW9G18    29.81F
$$



USA.gov is the U.S. government's official web portal to all federal, state and local government web resources and services.